Location: 10033 Water Well
(34.0865°N, 106.8959°W)
Time: 16:15:25
(UTC+00:00)

SKYMED 2 - Pass Details

Date: 13 January 2026
Orbit: 621 x 624 km, 97.9° (Epoch: 11 February)

Event Time Altitude Azimuth Distance (km) Brightness Sun altitude
Rises 01:03:49 0° 13° (NNE) 2,905 6.7 -9.4°
Reaches altitude 10° 01:06:01 10° 14° (NNE) 1,995 5.8 -9.9°
Maximum altitude 01:10:21 81° 101° (E) 634 3.5 -10.7°
Drops below altitude 10° 01:14:40 10° 190° (S) 1,981 6.5 -11.6°
Sets 01:16:51 0° 191° (S) 2,883 7.4 -12.0°
